Time,TemperatureF,DewpointF,PressureIn,WindDirection,WindDirectionDegrees,WindSpeedMPH,WindSpeedGustMPH,Humidity,HourlyPrecipIn,Conditions,Clouds,dailyrainin,SoftwareType,DateUTC
2013-01-07 00:02:00,41.0,39.2,30.09,West,274,2.0,3.0,93,0.00,,,0.00,meteohub,2013-01-07 08:02:00,
2013-01-07 00:07:00,41.0,38.8,30.09,West,271,1.0,3.0,92,0.00,,,0.00,meteohub,2013-01-07 08:07:00,
2013-01-07 00:12:00,41.2,39.4,30.09,WNW,292,2.0,3.0,93,0.00,,,0.00,meteohub,2013-01-07 08:12:00,
2013-01-07 00:17:00,41.0,39.2,30.09,NW,323,1.0,3.0,93,0.00,,,0.00,meteohub,2013-01-07 08:17:00,
2013-01-07 00:22:00,40.8,38.7,30.09,NNE,16,0.0,3.0,92,0.00,,,0.00,meteohub,2013-01-07 08:22:00,
2013-01-07 00:27:00,40.8,39.0,30.09,NE,43,0.0,3.0,93,0.00,,,0.00,meteohub,2013-01-07 08:27:00,
2013-01-07 00:32:00,40.6,38.8,30.09,ENE,77,0.0,2.0,93,0.00,,,0.00,meteohub,2013-01-07 08:32:00,
2013-01-07 00:37:00,40.8,39.2,30.08,ENE,76,1.0,2.0,94,0.00,,,0.00,meteohub,2013-01-07 08:37:00,
2013-01-07 00:42:00,40.5,38.7,30.08,East,90,0.0,3.0,93,0.00,,,0.00,meteohub,2013-01-07 08:42:00,
2013-01-07 00:47:00,40.3,38.1,30.08,East,90,0.0,3.0,92,0.00,,,0.00,meteohub,2013-01-07 08:47:00,
2013-01-07 00:52:00,40.3,38.5,30.08,East,90,0.0,3.0,93,0.00,,,0.00,meteohub,2013-01-07 08:52:00,
2013-01-07 00:57:00,40.1,38.3,30.08,East,90,0.0,2.0,93,0.00,,,0.00,meteohub,2013-01-07 08:57:00,
2013-01-07 01:02:00,40.5,38.8,30.08,NNW,329,1.0,3.0,94,0.00,,,0.00,meteohub,2013-01-07 09:02:00,
2013-01-07 01:07:00,40.3,38.5,30.08,NNW,329,0.0,3.0,93,0.00,,,0.00,meteohub,2013-01-07 09:07:00,
2013-01-07 01:12:00,40.5,38.8,30.08,NW,316,2.0,3.0,94,0.00,,,0.00,meteohub,2013-01-07 09:12:00,
2013-01-07 01:17:00,40.6,39.0,30.09,South,188,0.0,3.0,94,0.00,,,0.00,meteohub,2013-01-07 09:17:00,
2013-01-07 01:22:00,40.6,39.0,30.08,ESE,112,0.0,3.0,94,0.00,,,0.00,meteohub,2013-01-07 09:22:00,
2013-01-07 01:27:00,40.6,39.0,30.08,NNE,33,1.0,5.0,94,0.00,,,0.00,meteohub,2013-01-07 09:27:00,
2013-01-07 01:32:00,40.6,38.8,30.08,NNE,30,2.0,5.0,93,0.00,,,0.00,meteohub,2013-01-07 09:32:00,
2013-01-07 01:37:00,40.6,38.8,30.09,ENE,65,0.0,5.0,93,0.00,,,0.00,meteohub,2013-01-07 09:37:00,
2013-01-07 01:42:00,40.5,38.7,30.08,East,101,0.0,3.0,93,0.00,,,0.00,meteohub,2013-01-07 09:42:00,
2013-01-07 01:47:00,40.3,38.5,30.08,WNW,289,3.0,3.0,93,0.00,,,0.00,meteohub,2013-01-07 09:47:00,
2013-01-07 01:52:00,40.3,38.7,30.08,WNW,292,0.0,3.0,94,0.00,,,0.00,meteohub,2013-01-07 09:52:00,
2013-01-07 01:57:00,40.3,38.7,30.09,NNW,332,0.0,3.0,94,0.01,,,0.01,meteohub,2013-01-07 09:57:00,
2013-01-07 02:02:00,40.1,38.5,30.08,NNW,330,2.0,3.0,94,0.01,,,0.01,meteohub,2013-01-07 10:02:00,
2013-01-07 02:07:00,39.7,37.9,30.08,NNW,336,2.0,3.0,93,0.01,,,0.01,meteohub,2013-01-07 10:07:00,
2013-01-07 02:12:00,39.6,37.8,30.08,North,354,0.0,3.0,93,0.01,,,0.01,meteohub,2013-01-07 10:12:00,
2013-01-07 02:17:00,39.7,38.1,30.09,NW,307,2.0,3.0,94,0.01,,,0.01,meteohub,2013-01-07 10:17:00,
2013-01-07 02:22:00,39.7,38.1,30.08,NW,319,2.0,4.0,94,0.01,,,0.01,meteohub,2013-01-07 10:22:00,
2013-01-07 02:27:00,39.7,38.1,30.08,NW,315,3.0,4.0,94,0.01,,,0.01,meteohub,2013-01-07 10:27:00,
2013-01-07 02:32:00,39.9,38.7,30.08,West,267,3.0,4.0,95,0.01,,,0.01,meteohub,2013-01-07 10:32:00,
2013-01-07 02:37:00,40.5,38.8,30.09,SSE,148,0.0,5.0,94,0.01,,,0.01,meteohub,2013-01-07 10:37:00,
2013-01-07 02:42:00,40.3,38.7,30.09,NNW,348,0.0,5.0,94,0.01,,,0.01,meteohub,2013-01-07 10:42:00,
2013-01-07 02:47:00,39.9,38.1,30.09,NE,53,0.0,5.0,93,0.01,,,0.01,meteohub,2013-01-07 10:47:00,
2013-01-07 02:52:00,39.7,38.1,30.09,NNW,336,0.0,2.0,94,0.01,,,0.01,meteohub,2013-01-07 10:52:00,
2013-01-07 02:57:00,39.9,38.3,30.09,North,5,0.0,1.0,94,0.00,,,0.01,meteohub,2013-01-07 10:57:00,
2013-01-07 03:02:00,40.6,39.4,30.09,NW,316,2.0,2.0,95,0.00,,,0.01,meteohub,2013-01-07 11:02:00,
2013-01-07 03:07:00,41.2,39.9,30.10,West,269,3.0,4.0,95,0.00,,,0.01,meteohub,2013-01-07 11:07:00,
2013-01-07 03:12:00,40.8,39.2,30.10,West,260,2.0,5.0,94,0.00,,,0.01,meteohub,2013-01-07 11:12:00,
2013-01-07 03:17:00,41.4,40.1,30.10,West,271,3.0,5.0,95,0.00,,,0.01,meteohub,2013-01-07 11:17:00,
2013-01-07 03:22:00,41.9,40.3,30.11,West,263,3.0,5.0,94,0.00,,,0.01,meteohub,2013-01-07 11:22:00,
2013-01-07 03:27:00,42.1,40.5,30.11,West,269,2.0,5.0,94,0.00,,,0.01,meteohub,2013-01-07 11:27:00,
2013-01-07 03:32:00,42.3,40.6,30.11,West,269,0.0,5.0,94,0.00,,,0.01,meteohub,2013-01-07 11:32:00,
2013-01-07 03:37:00,42.3,40.6,30.11,West,276,1.0,4.0,94,0.00,,,0.01,meteohub,2013-01-07 11:37:00,
2013-01-07 03:42:00,41.9,40.1,30.11,West,274,0.0,3.0,93,0.00,,,0.01,meteohub,2013-01-07 11:42:00,
2013-01-07 03:47:00,41.5,39.7,30.11,West,274,0.0,2.0,93,0.00,,,0.01,meteohub,2013-01-07 11:47:00,
2013-01-07 03:52:00,41.5,39.4,30.11,West,274,0.0,2.0,92,0.00,,,0.01,meteohub,2013-01-07 11:52:00,
2013-01-07 04:02:00,41.7,39.9,30.10,WNW,285,2.0,3.0,93,0.00,,,0.01,meteohub,2013-01-07 12:02:00,
2013-01-07 04:07:00,42.3,40.5,30.10,WNW,294,1.0,4.0,93,0.00,,,0.01,meteohub,2013-01-07 12:07:00,
2013-01-07 04:12:00,42.3,40.5,30.10,West,281,1.0,4.0,93,0.00,,,0.01,meteohub,2013-01-07 12:12:00,
2013-01-07 04:17:00,42.4,40.3,30.10,West,262,3.0,4.0,92,0.00,,,0.01,meteohub,2013-01-07 12:17:00,
2013-01-07 04:22:00,42.6,40.5,30.10,West,278,1.0,5.0,92,0.00,,,0.01,meteohub,2013-01-07 12:22:00,
2013-01-07 04:27:00,42.6,40.5,30.10,West,259,3.0,5.0,92,0.00,,,0.01,meteohub,2013-01-07 12:27:00,
2013-01-07 04:32:00,42.4,39.9,30.10,West,264,2.0,5.0,91,0.00,,,0.01,meteohub,2013-01-07 12:32:00,
2013-01-07 04:37:00,42.6,40.5,30.10,WSW,250,1.0,4.0,92,0.00,,,0.01,meteohub,2013-01-07 12:37:00,
2013-01-07 04:42:00,42.4,39.4,30.10,East,82,2.0,4.0,89,0.00,,,0.01,meteohub,2013-01-07 12:42:00,
2013-01-07 04:47:00,41.4,38.7,30.11,East,82,0.0,4.0,90,0.00,,,0.01,meteohub,2013-01-07 12:47:00,
2013-01-07 04:52:00,41.4,39.0,30.11,NNE,16,0.0,4.0,91,0.00,,,0.01,meteohub,2013-01-07 12:52:00,
2013-01-07 04:57:00,41.2,38.8,30.11,NNE,16,0.0,2.0,91,0.00,,,0.01,meteohub,2013-01-07 12:57:00,
2013-01-07 05:02:00,40.6,38.3,30.12,East,92,0.0,0.0,91,0.00,,,0.01,meteohub,2013-01-07 13:02:00,
2013-01-07 05:07:00,40.6,38.5,30.12,West,267,3.0,0.0,92,0.00,,,0.01,meteohub,2013-01-07 13:07:00,
2013-01-07 05:12:00,41.7,39.9,30.12,WNW,290,2.0,4.0,93,0.00,,,0.01,meteohub,2013-01-07 13:12:00,
2013-01-07 05:17:00,42.1,39.9,30.12,West,273,3.0,4.0,92,0.00,,,0.01,meteohub,2013-01-07 13:17:00,
2013-01-07 05:22:00,42.4,40.3,30.12,West,269,5.0,5.0,92,0.00,,,0.01,meteohub,2013-01-07 13:22:00,
2013-01-07 05:27:00,43.0,40.5,30.12,West,273,2.0,6.0,91,0.00,,,0.01,meteohub,2013-01-07 13:27:00,
2013-01-07 05:32:00,43.3,40.8,30.12,West,269,4.0,6.0,91,0.00,,,0.01,meteohub,2013-01-07 13:32:00,
2013-01-07 05:37:00,43.5,40.8,30.12,West,277,3.0,6.0,90,0.00,,,0.01,meteohub,2013-01-07 13:37:00,
2013-01-07 05:42:00,43.5,40.8,30.12,West,273,3.0,6.0,90,0.00,,,0.01,meteohub,2013-01-07 13:42:00,
2013-01-07 05:47:00,43.3,40.3,30.12,WNW,289,2.0,5.0,89,0.00,,,0.01,meteohub,2013-01-07 13:47:00,
2013-01-07 05:52:00,43.0,39.9,30.11,WNW,300,3.0,5.0,89,0.00,,,0.01,meteohub,2013-01-07 13:52:00,
2013-01-07 05:57:00,42.3,39.2,30.11,NNW,333,2.0,4.0,89,0.00,,,0.01,meteohub,2013-01-07 13:57:00,
2013-01-07 06:02:00,42.3,39.6,30.12,West,281,0.0,3.0,90,0.00,,,0.01,meteohub,2013-01-07 14:02:00,
2013-01-07 06:07:00,41.7,38.7,30.12,West,281,1.0,3.0,89,0.00,,,0.01,meteohub,2013-01-07 14:07:00,
2013-01-07 06:12:00,41.4,39.0,30.12,West,281,0.0,3.0,91,0.00,,,0.01,meteohub,2013-01-07 14:12:00,
2013-01-07 06:17:00,41.4,39.0,30.12,West,281,0.0,2.0,91,0.00,,,0.01,meteohub,2013-01-07 14:17:00,
2013-01-07 06:22:00,41.7,39.6,30.12,West,263,4.0,4.0,92,0.00,,,0.01,meteohub,2013-01-07 14:22:00,
2013-01-07 06:27:00,42.6,40.8,30.13,WNW,293,2.0,4.0,93,0.00,,,0.01,meteohub,2013-01-07 14:27:00,
2013-01-07 06:32:00,42.6,40.5,30.13,WSW,252,3.0,5.0,92,0.00,,,0.01,meteohub,2013-01-07 14:32:00,
2013-01-07 06:37:00,43.0,40.8,30.13,WSW,249,0.0,5.0,92,0.00,,,0.01,meteohub,2013-01-07 14:37:00,
2013-01-07 06:42:00,42.6,40.1,30.13,WSW,249,0.0,4.0,91,0.00,,,0.01,meteohub,2013-01-07 14:42:00,
2013-01-07 06:47:00,42.4,39.9,30.13,WSW,249,0.0,3.0,91,0.00,,,0.01,meteohub,2013-01-07 14:47:00,
2013-01-07 06:52:00,42.3,39.7,30.14,WSW,249,0.0,1.0,91,0.00,,,0.01,meteohub,2013-01-07 14:52:00,
2013-01-07 06:57:00,41.5,39.2,30.14,WSW,249,0.0,0.0,91,0.00,,,0.01,meteohub,2013-01-07 14:57:00,
2013-01-07 07:02:00,41.2,38.8,30.14,WSW,249,0.0,0.0,91,0.00,,,0.01,meteohub,2013-01-07 15:02:00,
2013-01-07 07:07:00,41.2,39.0,30.14,WSW,249,0.0,0.0,92,0.00,,,0.01,meteohub,2013-01-07 15:07:00,
2013-01-07 07:12:00,41.5,39.7,30.14,WSW,250,2.0,0.0,93,0.00,,,0.01,meteohub,2013-01-07 15:12:00,
2013-01-07 07:17:00,42.3,40.5,30.14,WSW,250,0.0,2.0,93,0.00,,,0.01,meteohub,2013-01-07 15:17:00,
2013-01-07 07:22:00,42.3,40.1,30.14,WSW,249,0.0,2.0,92,0.00,,,0.01,meteohub,2013-01-07 15:22:00,
2013-01-07 07:27:00,41.5,39.2,30.14,WSW,249,0.0,2.0,91,0.00,,,0.01,meteohub,2013-01-07 15:27:00,
2013-01-07 07:32:00,41.7,39.9,30.14,WSW,249,0.0,2.0,93,0.00,,,0.01,meteohub,2013-01-07 15:32:00,
2013-01-07 07:37:00,41.9,39.7,30.15,ESE,117,0.0,0.0,92,0.00,,,0.01,meteohub,2013-01-07 15:37:00,
2013-01-07 07:42:00,41.2,39.0,30.15,ESE,117,0.0,0.0,92,0.00,,,0.01,meteohub,2013-01-07 15:42:00,
2013-01-07 07:47:00,41.0,38.8,30.14,ESE,116,0.0,0.0,92,0.00,,,0.01,meteohub,2013-01-07 15:47:00,
2013-01-07 07:52:00,41.0,39.2,30.15,ESE,117,1.0,0.0,93,0.00,,,0.01,meteohub,2013-01-07 15:52:00,
2013-01-07 07:57:00,41.2,39.4,30.16,ESE,119,0.0,2.0,93,0.00,,,0.01,meteohub,2013-01-07 15:57:00,
2013-01-07 08:02:00,41.7,40.1,30.16,ESE,119,0.0,2.0,94,0.00,,,0.01,meteohub,2013-01-07 16:02:00,
2013-01-07 08:07:00,43.0,41.7,30.16,SE,142,2.0,2.0,95,0.00,,,0.01,meteohub,2013-01-07 16:07:00,
2013-01-07 08:12:00,43.5,41.9,30.16,East,89,0.0,2.0,94,0.00,,,0.01,meteohub,2013-01-07 16:12:00,
2013-01-07 08:17:00,43.9,41.9,30.16,East,89,0.0,2.0,93,0.00,,,0.01,meteohub,2013-01-07 16:17:00,
2013-01-07 08:22:00,44.1,41.9,30.15,WNW,300,1.0,2.0,92,0.00,,,0.01,meteohub,2013-01-07 16:22:00,
2013-01-07 08:27:00,44.1,41.9,30.15,WNW,297,1.0,4.0,92,0.00,,,0.01,meteohub,2013-01-07 16:27:00,
2013-01-07 08:32:00,44.2,42.1,30.16,WNW,296,0.0,4.0,92,0.00,,,0.01,meteohub,2013-01-07 16:32:00,
2013-01-07 08:37:00,44.4,42.3,30.15,WNW,297,1.0,4.0,92,0.00,,,0.01,meteohub,2013-01-07 16:37:00,
2013-01-07 08:42:00,44.8,42.6,30.15,WNW,296,1.0,2.0,92,0.00,,,0.01,meteohub,2013-01-07 16:42:00,
2013-01-07 08:47:00,45.0,42.4,30.15,WNW,297,1.0,2.0,91,0.00,,,0.01,meteohub,2013-01-07 16:47:00,
2013-01-07 08:52:00,45.1,42.6,30.16,WNW,296,1.0,2.0,91,0.00,,,0.01,meteohub,2013-01-07 16:52:00,
2013-01-07 08:57:00,45.7,43.2,30.16,WNW,296,1.0,2.0,91,0.00,,,0.01,meteohub,2013-01-07 16:57:00,
2013-01-07 09:02:00,45.9,43.3,30.17,WNW,297,0.0,2.0,91,0.00,,,0.01,meteohub,2013-01-07 17:02:00,
2013-01-07 09:07:00,46.4,43.9,30.17,WNW,296,0.0,2.0,91,0.00,,,0.01,meteohub,2013-01-07 17:07:00,
2013-01-07 09:12:00,46.8,44.1,30.16,WNW,300,0.0,2.0,90,0.00,,,0.01,meteohub,2013-01-07 17:12:00,
2013-01-07 09:17:00,46.4,43.3,30.16,WNW,302,4.0,5.0,89,0.00,,,0.01,meteohub,2013-01-07 17:17:00,
2013-01-07 09:22:00,46.0,43.3,30.16,West,276,2.0,5.0,90,0.00,,,0.01,meteohub,2013-01-07 17:22:00,
2013-01-07 09:27:00,46.0,43.3,30.17,WNW,290,1.0,5.0,90,0.00,,,0.01,meteohub,2013-01-07 17:27:00,
2013-01-07 09:32:00,46.0,43.3,30.17,West,271,0.0,5.0,90,0.00,,,0.01,meteohub,2013-01-07 17:32:00,
2013-01-07 09:37:00,46.4,43.7,30.17,West,269,0.0,4.0,90,0.00,,,0.01,meteohub,2013-01-07 17:37:00,
2013-01-07 09:42:00,46.8,44.1,30.17,WNW,302,0.0,3.0,90,0.00,,,0.01,meteohub,2013-01-07 17:42:00,
2013-01-07 09:47:00,46.8,43.7,30.18,WNW,302,0.0,0.0,89,0.00,,,0.01,meteohub,2013-01-07 17:47:00,
2013-01-07 09:52:00,46.9,43.5,30.18,WNW,301,0.0,0.0,88,0.00,,,0.01,meteohub,2013-01-07 17:52:00,
2013-01-07 09:57:00,47.1,43.7,30.18,WNW,300,0.0,0.0,88,0.00,,,0.01,meteohub,2013-01-07 17:57:00,
2013-01-07 10:02:00,47.1,43.5,30.18,WNW,287,0.0,0.0,87,0.00,,,0.01,meteohub,2013-01-07 18:02:00,
2013-01-07 10:07:00,47.5,43.9,30.18,WNW,291,0.0,0.0,87,0.00,,,0.01,meteohub,2013-01-07 18:07:00,
2013-01-07 10:12:00,47.5,43.9,30.19,NW,308,0.0,0.0,87,0.00,,,0.01,meteohub,2013-01-07 18:12:00,
2013-01-07 10:17:00,47.7,44.1,30.19,NW,307,0.0,0.0,87,0.00,,,0.01,meteohub,2013-01-07 18:17:00,
2013-01-07 10:22:00,47.8,44.2,30.18,NW,309,0.0,0.0,87,0.00,,,0.01,meteohub,2013-01-07 18:22:00,
2013-01-07 10:27:00,48.0,44.4,30.18,NE,50,0.0,0.0,87,0.00,,,0.01,meteohub,2013-01-07 18:27:00,
2013-01-07 10:32:00,48.6,44.6,30.18,NE,50,0.0,0.0,86,0.00,,,0.01,meteohub,2013-01-07 18:32:00,
2013-01-07 10:37:00,48.9,45.0,30.17,NE,53,0.0,0.0,86,0.00,,,0.01,meteohub,2013-01-07 18:37:00,
2013-01-07 10:42:00,49.5,45.5,30.17,NE,53,0.0,0.0,86,0.00,,,0.01,meteohub,2013-01-07 18:42:00,
2013-01-07 10:47:00,49.6,45.3,30.17,NE,36,0.0,0.0,85,0.00,,,0.01,meteohub,2013-01-07 18:47:00,
2013-01-07 10:52:00,50.4,45.7,30.17,NE,39,0.0,0.0,84,0.00,,,0.01,meteohub,2013-01-07 18:52:00,
2013-01-07 10:57:00,50.7,45.7,30.17,NNE,32,0.0,0.0,83,0.00,,,0.01,meteohub,2013-01-07 18:57:00,
2013-01-07 11:02:00,51.4,46.2,30.17,WNW,302,2.0,0.0,82,0.00,,,0.01,meteohub,2013-01-07 19:02:00,
2013-01-07 11:07:00,51.4,46.2,30.17,East,89,1.0,3.0,82,0.00,,,0.01,meteohub,2013-01-07 19:07:00,
2013-01-07 11:12:00,51.1,45.1,30.17,East,81,2.0,3.0,80,0.00,,,0.01,meteohub,2013-01-07 19:12:00,
2013-01-07 11:17:00,51.1,46.0,30.18,ENE,61,1.0,4.0,83,0.00,,,0.01,meteohub,2013-01-07 19:17:00,
2013-01-07 11:22:00,51.1,45.9,30.17,ENE,61,2.0,5.0,82,0.00,,,0.01,meteohub,2013-01-07 19:22:00,
2013-01-07 11:27:00,50.5,44.6,30.17,ENE,73,3.0,5.0,80,0.00,,,0.01,meteohub,2013-01-07 19:27:00,
2013-01-07 11:32:00,50.5,45.0,30.17,East,81,3.0,5.0,81,0.00,,,0.01,meteohub,2013-01-07 19:32:00,
2013-01-07 11:37:00,50.4,45.3,30.16,ENE,64,3.0,5.0,83,0.00,,,0.01,meteohub,2013-01-07 19:37:00,
2013-01-07 11:42:00,50.9,45.9,30.15,NE,50,1.0,7.0,83,0.00,,,0.01,meteohub,2013-01-07 19:42:00,
2013-01-07 11:47:00,50.9,45.7,30.15,East,82,4.0,7.0,82,0.00,,,0.01,meteohub,2013-01-07 19:47:00,
2013-01-07 11:52:00,50.9,46.6,30.14,ENE,68,0.0,6.0,85,0.00,,,0.01,meteohub,2013-01-07 19:52:00,
2013-01-07 11:57:00,51.6,46.9,30.13,NW,304,3.0,6.0,84,0.00,,,0.01,meteohub,2013-01-07 19:57:00,
2013-01-07 12:02:00,52.0,46.6,30.13,NE,56,2.0,5.0,82,0.00,,,0.01,meteohub,2013-01-07 20:02:00,
2013-01-07 12:07:00,51.6,46.6,30.12,NE,55,1.0,5.0,83,0.00,,,0.01,meteohub,2013-01-07 20:07:00,
2013-01-07 12:12:00,51.6,46.2,30.12,East,89,5.0,7.0,82,0.00,,,0.01,meteohub,2013-01-07 20:12:00,
2013-01-07 12:17:00,51.3,46.6,30.12,NNE,22,3.0,7.0,84,0.00,,,0.01,meteohub,2013-01-07 20:17:00,
2013-01-07 12:22:00,51.4,46.4,30.12,ENE,58,4.0,7.0,83,0.00,,,0.01,meteohub,2013-01-07 20:22:00,
2013-01-07 12:27:00,51.3,46.2,30.12,NE,36,3.0,6.0,83,0.00,,,0.01,meteohub,2013-01-07 20:27:00,
2013-01-07 12:32:00,51.4,46.8,30.12,East,86,4.0,6.0,84,0.00,,,0.01,meteohub,2013-01-07 20:32:00,
2013-01-07 12:37:00,51.4,46.8,30.12,East,82,4.0,6.0,84,0.00,,,0.01,meteohub,2013-01-07 20:37:00,
2013-01-07 12:42:00,51.4,46.4,30.12,ENE,70,4.0,6.0,83,0.00,,,0.01,meteohub,2013-01-07 20:42:00,
2013-01-07 12:47:00,51.6,46.6,30.11,ENE,57,2.0,7.0,83,0.00,,,0.01,meteohub,2013-01-07 20:47:00,
2013-01-07 12:52:00,51.8,46.4,30.11,East,81,3.0,7.0,82,0.00,,,0.01,meteohub,2013-01-07 20:52:00,
2013-01-07 12:57:00,51.8,46.4,30.12,ENE,73,2.0,7.0,82,0.00,,,0.01,meteohub,2013-01-07 20:57:00,
2013-01-07 13:02:00,52.0,46.9,30.11,East,89,6.0,9.0,83,0.00,,,0.01,meteohub,2013-01-07 21:02:00,
2013-01-07 13:07:00,52.2,47.1,30.11,East,82,2.0,9.0,83,0.00,,,0.01,meteohub,2013-01-07 21:07:00,
2013-01-07 13:12:00,52.3,46.9,30.11,East,83,6.0,9.0,82,0.00,,,0.01,meteohub,2013-01-07 21:12:00,
2013-01-07 13:17:00,52.5,47.1,30.11,East,92,3.0,6.0,82,0.00,,,0.01,meteohub,2013-01-07 21:17:00,
2013-01-07 13:22:00,52.7,47.3,30.11,NE,49,2.0,7.0,82,0.00,,,0.01,meteohub,2013-01-07 21:22:00,
2013-01-07 13:27:00,53.2,48.2,30.10,NNE,24,4.0,7.0,83,0.00,,,0.01,meteohub,2013-01-07 21:27:00,
2013-01-07 13:32:00,53.2,47.8,30.11,East,84,5.0,7.0,82,0.00,,,0.01,meteohub,2013-01-07 21:32:00,
2013-01-07 13:37:00,53.1,47.7,30.10,ENE,68,5.0,6.0,82,0.00,,,0.01,meteohub,2013-01-07 21:37:00,
2013-01-07 13:42:00,52.9,47.5,30.10,NE,51,2.0,6.0,82,0.00,,,0.01,meteohub,2013-01-07 21:42:00,
2013-01-07 13:47:00,53.6,48.6,30.10,North,11,2.0,6.0,83,0.00,,,0.01,meteohub,2013-01-07 21:47:00,
2013-01-07 13:52:00,54.0,48.2,30.09,NNE,26,3.0,6.0,81,0.00,,,0.01,meteohub,2013-01-07 21:52:00,
2013-01-07 13:57:00,54.1,48.0,30.09,ENE,57,1.0,6.0,80,0.00,,,0.01,meteohub,2013-01-07 21:57:00,
2013-01-07 14:02:00,54.0,48.0,30.09,East,81,2.0,8.0,80,0.00,,,0.01,meteohub,2013-01-07 22:02:00,
2013-01-07 14:07:00,54.1,48.4,30.09,North,4,3.0,8.0,81,0.00,,,0.01,meteohub,2013-01-07 22:07:00,
2013-01-07 14:12:00,54.7,48.6,30.09,NNW,330,2.0,8.0,80,0.00,,,0.01,meteohub,2013-01-07 22:12:00,
2013-01-07 14:17:00,54.3,48.0,30.09,NNE,32,2.0,7.0,79,0.00,,,0.01,meteohub,2013-01-07 22:17:00,
2013-01-07 14:22:00,54.7,48.9,30.09,NNE,27,2.0,4.0,81,0.00,,,0.01,meteohub,2013-01-07 22:22:00,
2013-01-07 14:27:00,55.2,48.7,30.09,NE,43,1.0,4.0,79,0.00,,,0.01,meteohub,2013-01-07 22:27:00,
2013-01-07 14:32:00,56.3,49.5,30.08,NE,49,0.0,4.0,78,0.00,,,0.01,meteohub,2013-01-07 22:32:00,
2013-01-07 14:37:00,57.0,48.7,30.08,ENE,64,1.0,3.0,74,0.00,,,0.01,meteohub,2013-01-07 22:37:00,
2013-01-07 14:42:00,55.8,48.7,30.09,ENE,64,1.0,5.0,77,0.00,,,0.01,meteohub,2013-01-07 22:42:00,
2013-01-07 14:47:00,55.8,48.7,30.09,ENE,77,1.0,5.0,77,0.00,,,0.01,meteohub,2013-01-07 22:47:00,
2013-01-07 14:52:00,55.8,48.4,30.09,East,93,3.0,5.0,76,0.00,,,0.01,meteohub,2013-01-07 22:52:00,
2013-01-07 14:57:00,55.4,48.9,30.09,ENE,59,2.0,4.0,79,0.00,,,0.01,meteohub,2013-01-07 22:57:00,
2013-01-07 15:02:00,55.6,48.2,30.09,ENE,73,4.0,4.0,76,0.00,,,0.01,meteohub,2013-01-07 23:02:00,
2013-01-07 15:07:00,55.0,48.6,30.09,NE,53,3.0,5.0,79,0.00,,,0.01,meteohub,2013-01-07 23:07:00,
2013-01-07 15:12:00,55.6,49.1,30.09,East,94,2.0,5.0,79,0.00,,,0.01,meteohub,2013-01-07 23:12:00,
2013-01-07 15:17:00,55.2,48.7,30.09,ENE,73,2.0,5.0,79,0.00,,,0.01,meteohub,2013-01-07 23:17:00,
2013-01-07 15:22:00,54.7,48.4,30.09,NE,50,2.0,5.0,79,0.00,,,0.01,meteohub,2013-01-07 23:22:00,
2013-01-07 15:27:00,55.0,48.6,30.09,NE,39,1.0,5.0,79,0.00,,,0.01,meteohub,2013-01-07 23:27:00,
2013-01-07 15:32:00,55.2,48.6,30.09,NE,35,1.0,4.0,78,0.00,,,0.01,meteohub,2013-01-07 23:32:00,
2013-01-07 15:37:00,55.2,48.2,30.08,NNE,27,1.0,4.0,77,0.00,,,0.01,meteohub,2013-01-07 23:37:00,
2013-01-07 15:42:00,55.9,48.9,30.08,NNE,33,0.0,3.0,77,0.00,,,0.01,meteohub,2013-01-07 23:42:00,
2013-01-07 15:47:00,56.1,48.0,30.08,NNW,340,2.0,3.0,74,0.00,,,0.01,meteohub,2013-01-07 23:47:00,
2013-01-07 15:52:00,56.1,47.3,30.08,North,11,0.0,3.0,72,0.00,,,0.01,meteohub,2013-01-07 23:52:00,
2013-01-07 15:57:00,56.1,47.3,30.08,WNW,300,3.0,3.0,72,0.00,,,0.01,meteohub,2013-01-07 23:57:00,
2013-01-07 16:02:00,56.3,46.9,30.08,ENE,72,2.0,3.0,71,0.00,,,0.01,meteohub,2013-01-08 00:02:00,
2013-01-07 16:07:00,56.8,47.5,30.08,NNE,22,1.0,3.0,71,0.00,,,0.00,meteohub,2013-01-08 00:07:00,
2013-01-07 16:12:00,56.7,46.6,30.08,NNE,13,0.0,3.0,69,0.00,,,0.00,meteohub,2013-01-08 00:12:00,
2013-01-07 16:17:00,56.1,46.4,30.08,NNW,330,1.0,2.0,70,0.00,,,0.00,meteohub,2013-01-08 00:17:00,
2013-01-07 16:22:00,55.2,46.4,30.08,North,353,2.0,2.0,72,0.00,,,0.00,meteohub,2013-01-08 00:22:00,
2013-01-07 16:27:00,54.9,46.0,30.08,North,353,2.0,2.0,72,0.00,,,0.00,meteohub,2013-01-08 00:27:00,
2013-01-07 16:32:00,54.9,46.8,30.08,North,8,0.0,3.0,74,0.00,,,0.00,meteohub,2013-01-08 00:32:00,
2013-01-07 16:37:00,54.7,47.7,30.08,NE,39,1.0,3.0,77,0.00,,,0.00,meteohub,2013-01-08 00:37:00,
2013-01-07 16:42:00,54.3,47.7,30.08,NE,39,0.0,3.0,78,0.00,,,0.00,meteohub,2013-01-08 00:42:00,
2013-01-07 16:47:00,54.3,48.0,30.08,NE,39,1.0,2.0,79,0.00,,,0.00,meteohub,2013-01-08 00:47:00,
2013-01-07 16:52:00,54.0,48.0,30.07,NE,39,0.0,2.0,80,0.00,,,0.00,meteohub,2013-01-08 00:52:00,
2013-01-07 16:57:00,53.4,47.7,30.07,NE,39,0.0,2.0,81,0.00,,,0.00,meteohub,2013-01-08 00:57:00,
2013-01-07 17:02:00,53.1,47.7,30.08,NE,39,0.0,2.0,82,0.00,,,0.00,meteohub,2013-01-08 01:02:00,
2013-01-07 17:07:00,52.9,47.8,30.08,NE,39,0.0,1.0,83,0.00,,,0.00,meteohub,2013-01-08 01:07:00,
2013-01-07 17:12:00,52.3,47.3,30.08,NE,39,0.0,1.0,83,0.00,,,0.00,meteohub,2013-01-08 01:12:00,
2013-01-07 17:17:00,52.0,47.3,30.08,NE,39,0.0,1.0,84,0.00,,,0.00,meteohub,2013-01-08 01:17:00,
2013-01-07 17:22:00,51.4,47.1,30.08,NE,41,0.0,0.0,85,0.00,,,0.00,meteohub,2013-01-08 01:22:00,
2013-01-07 17:27:00,51.3,47.3,30.08,NE,41,0.0,0.0,86,0.00,,,0.00,meteohub,2013-01-08 01:27:00,
2013-01-07 17:32:00,51.1,47.1,30.08,NE,41,0.0,0.0,86,0.00,,,0.00,meteohub,2013-01-08 01:32:00,
2013-01-07 17:37:00,50.9,47.1,30.08,NE,39,0.0,1.0,87,0.00,,,0.00,meteohub,2013-01-08 01:37:00,
2013-01-07 17:42:00,50.7,46.8,30.08,NE,41,0.0,1.0,86,0.00,,,0.00,meteohub,2013-01-08 01:42:00,
2013-01-07 17:47:00,50.4,46.0,30.08,NE,41,0.0,1.0,85,0.00,,,0.00,meteohub,2013-01-08 01:47:00,
2013-01-07 17:52:00,50.4,46.0,30.08,NE,41,0.0,1.0,85,0.00,,,0.00,meteohub,2013-01-08 01:52:00,
2013-01-07 17:57:00,50.2,45.5,30.08,NE,41,0.0,1.0,84,0.00,,,0.00,meteohub,2013-01-08 01:57:00,
2013-01-07 18:02:00,49.8,45.5,30.08,NE,44,0.0,1.0,85,0.00,,,0.00,meteohub,2013-01-08 02:02:00,
2013-01-07 18:07:00,49.6,45.7,30.08,NE,44,0.0,1.0,86,0.00,,,0.00,meteohub,2013-01-08 02:07:00,
2013-01-07 18:12:00,49.6,45.3,30.08,NE,44,0.0,1.0,85,0.00,,,0.00,meteohub,2013-01-08 02:12:00,
2013-01-07 18:17:00,49.6,45.3,30.08,NE,44,0.0,0.0,85,0.00,,,0.00,meteohub,2013-01-08 02:17:00,
2013-01-07 18:22:00,49.5,45.1,30.07,NE,44,1.0,1.0,85,0.00,,,0.00,meteohub,2013-01-08 02:22:00,
2013-01-07 18:27:00,49.6,45.0,30.08,NE,44,0.0,1.0,84,0.00,,,0.00,meteohub,2013-01-08 02:27:00,
2013-01-07 18:32:00,49.5,44.8,30.07,NE,44,0.0,1.0,84,0.00,,,0.00,meteohub,2013-01-08 02:32:00,
2013-01-07 18:37:00,49.5,44.8,30.07,NE,44,0.0,1.0,84,0.00,,,0.00,meteohub,2013-01-08 02:37:00,
2013-01-07 18:42:00,49.5,44.8,30.07,NE,44,0.0,0.0,84,0.00,,,0.00,meteohub,2013-01-08 02:42:00,
2013-01-07 18:52:00,48.7,44.4,30.06,NE,46,0.0,0.0,85,0.00,,,0.00,meteohub,2013-01-08 02:52:00,
2013-01-07 18:57:00,48.6,44.6,30.06,NE,46,0.0,0.0,86,0.00,,,0.00,meteohub,2013-01-08 02:57:00,
2013-01-07 19:02:00,48.4,44.8,30.06,NE,45,0.0,0.0,87,0.00,,,0.00,meteohub,2013-01-08 03:02:00,
2013-01-07 19:07:00,48.2,44.6,30.07,NE,46,0.0,0.0,87,0.00,,,0.00,meteohub,2013-01-08 03:07:00,
2013-01-07 19:12:00,47.8,44.2,30.07,NE,46,0.0,1.0,87,0.00,,,0.00,meteohub,2013-01-08 03:12:00,
2013-01-07 19:17:00,47.7,44.1,30.07,NE,46,0.0,1.0,87,0.00,,,0.00,meteohub,2013-01-08 03:17:00,
2013-01-07 19:22:00,47.3,43.7,30.07,NE,46,0.0,1.0,87,0.00,,,0.00,meteohub,2013-01-08 03:22:00,
2013-01-07 19:27:00,46.9,43.5,30.07,NE,46,0.0,0.0,88,0.00,,,0.00,meteohub,2013-01-08 03:27:00,
2013-01-07 19:32:00,46.6,43.2,30.07,NE,46,0.0,0.0,88,0.00,,,0.00,meteohub,2013-01-08 03:32:00,
2013-01-07 19:37:00,46.8,43.7,30.07,NE,47,0.0,0.0,89,0.00,,,0.00,meteohub,2013-01-08 03:37:00,
2013-01-07 19:42:00,46.8,44.1,30.08,ENE,57,0.0,0.0,90,0.00,,,0.00,meteohub,2013-01-08 03:42:00,
2013-01-07 19:47:00,46.6,43.9,30.08,ENE,70,0.0,0.0,90,0.00,,,0.00,meteohub,2013-01-08 03:47:00,
2013-01-07 19:52:00,46.4,43.7,30.08,ENE,71,0.0,0.0,90,0.00,,,0.00,meteohub,2013-01-08 03:52:00,
2013-01-07 19:57:00,46.2,43.5,30.08,ENE,71,0.0,0.0,90,0.00,,,0.00,meteohub,2013-01-08 03:57:00,
2013-01-07 20:02:00,45.9,43.2,30.08,ENE,71,0.0,0.0,90,0.00,,,0.00,meteohub,2013-01-08 04:02:00,
2013-01-07 20:07:00,45.9,43.3,30.08,ENE,70,0.0,0.0,91,0.00,,,0.00,meteohub,2013-01-08 04:07:00,
2013-01-07 20:12:00,45.7,43.2,30.08,SSE,148,0.0,0.0,91,0.00,,,0.00,meteohub,2013-01-08 04:12:00,
2013-01-07 20:17:00,45.9,43.7,30.08,SSE,152,0.0,3.0,92,0.00,,,0.00,meteohub,2013-01-08 04:17:00,
2013-01-07 20:22:00,46.0,43.5,30.08,SSE,152,0.0,3.0,91,0.00,,,0.00,meteohub,2013-01-08 04:22:00,
2013-01-07 20:27:00,46.0,43.5,30.08,SSE,152,0.0,3.0,91,0.00,,,0.00,meteohub,2013-01-08 04:27:00,
2013-01-07 20:32:00,45.9,43.3,30.08,SSE,153,0.0,0.0,91,0.00,,,0.00,meteohub,2013-01-08 04:32:00,
2013-01-07 20:37:00,45.9,43.3,30.08,SSE,153,0.0,0.0,91,0.00,,,0.00,meteohub,2013-01-08 04:37:00,
2013-01-07 20:42:00,45.7,43.2,30.08,SSE,153,0.0,0.0,91,0.00,,,0.00,meteohub,2013-01-08 04:42:00,
2013-01-07 20:47:00,45.9,43.7,30.08,SSE,148,0.0,0.0,92,0.00,,,0.00,meteohub,2013-01-08 04:47:00,
2013-01-07 20:52:00,45.5,43.0,30.08,SSE,148,0.0,0.0,91,0.00,,,0.00,meteohub,2013-01-08 04:52:00,
2013-01-07 20:57:00,45.3,42.8,30.08,SSE,148,0.0,0.0,91,0.00,,,0.00,meteohub,2013-01-08 04:57:00,
2013-01-07 21:02:00,45.1,42.6,30.08,SSE,148,0.0,0.0,91,0.00,,,0.00,meteohub,2013-01-08 05:02:00,
2013-01-07 21:07:00,45.0,42.4,30.08,SSE,148,0.0,0.0,91,0.00,,,0.00,meteohub,2013-01-08 05:07:00,
2013-01-07 21:12:00,45.1,43.0,30.08,SSE,148,0.0,0.0,92,0.00,,,0.00,meteohub,2013-01-08 05:12:00,
2013-01-07 21:17:00,45.1,43.0,30.08,SSE,148,0.0,0.0,92,0.00,,,0.00,meteohub,2013-01-08 05:17:00,
2013-01-07 21:22:00,45.0,42.8,30.08,SSE,148,0.0,0.0,92,0.00,,,0.00,meteohub,2013-01-08 05:22:00,
2013-01-07 21:27:00,44.8,42.6,30.08,SSE,148,0.0,0.0,92,0.00,,,0.00,meteohub,2013-01-08 05:27:00,
2013-01-07 21:32:00,45.0,43.0,30.09,SSE,148,0.0,0.0,93,0.00,,,0.00,meteohub,2013-01-08 05:32:00,
2013-01-07 21:37:00,45.5,43.5,30.09,NNW,347,1.0,0.0,93,0.00,,,0.00,meteohub,2013-01-08 05:37:00,
2013-01-07 21:42:00,45.5,43.3,30.09,NNW,348,1.0,2.0,92,0.00,,,0.00,meteohub,2013-01-08 05:42:00,
2013-01-07 21:47:00,45.7,43.5,30.09,North,349,1.0,2.0,92,0.00,,,0.00,meteohub,2013-01-08 05:47:00,
2013-01-07 21:52:00,45.9,43.7,30.08,North,349,0.0,2.0,92,0.00,,,0.00,meteohub,2013-01-08 05:52:00,
2013-01-07 21:57:00,45.7,43.2,30.09,NE,44,0.0,2.0,91,0.00,,,0.00,meteohub,2013-01-08 05:57:00,
2013-01-07 22:07:00,44.8,42.3,30.09,NE,44,0.0,1.0,91,0.00,,,0.00,meteohub,2013-01-08 06:07:00,
2013-01-07 22:12:00,44.6,42.1,30.09,NE,46,0.0,0.0,91,0.00,,,0.00,meteohub,2013-01-08 06:12:00,
2013-01-07 22:17:00,45.1,43.2,30.08,NE,46,0.0,0.0,93,0.00,,,0.00,meteohub,2013-01-08 06:17:00,
2013-01-07 22:22:00,45.1,43.0,30.08,NNW,340,1.0,0.0,92,0.00,,,0.00,meteohub,2013-01-08 06:22:00,
2013-01-07 22:27:00,45.1,43.0,30.08,NNW,340,1.0,3.0,92,0.00,,,0.00,meteohub,2013-01-08 06:27:00,
2013-01-07 22:32:00,45.0,42.8,30.08,NNW,340,0.0,3.0,92,0.00,,,0.00,meteohub,2013-01-08 06:32:00,
2013-01-07 22:37:00,44.8,42.3,30.08,NNW,340,0.0,3.0,91,0.00,,,0.00,meteohub,2013-01-08 06:37:00,
2013-01-07 22:47:00,44.1,41.9,30.08,ENE,65,0.0,2.0,92,0.00,,,0.00,meteohub,2013-01-08 06:47:00,
2013-01-07 22:52:00,44.1,41.9,30.08,ENE,65,0.0,2.0,92,0.00,,,0.00,meteohub,2013-01-08 06:52:00,
2013-01-07 22:57:00,44.1,42.1,30.08,East,92,0.0,2.0,93,0.00,,,0.00,meteohub,2013-01-08 06:57:00,
2013-01-07 23:02:00,44.8,43.2,30.08,East,92,0.0,1.0,94,0.00,,,0.00,meteohub,2013-01-08 07:02:00,
2013-01-07 23:07:00,45.0,43.0,30.08,SSE,154,1.0,0.0,93,0.00,,,0.00,meteohub,2013-01-08 07:07:00,
2013-01-07 23:12:00,45.0,43.0,30.08,SSE,153,0.0,2.0,93,0.00,,,0.00,meteohub,2013-01-08 07:12:00,
2013-01-07 23:17:00,45.0,43.0,30.09,SSE,152,0.0,2.0,93,0.00,,,0.00,meteohub,2013-01-08 07:17:00,
2013-01-07 23:22:00,45.0,43.0,30.09,SSE,152,0.0,2.0,93,0.00,,,0.00,meteohub,2013-01-08 07:22:00,
2013-01-07 23:27:00,45.0,43.0,30.09,SSE,153,0.0,1.0,93,0.00,,,0.00,meteohub,2013-01-08 07:27:00,
2013-01-07 23:32:00,44.8,42.8,30.09,SSE,152,0.0,0.0,93,0.00,,,0.00,meteohub,2013-01-08 07:32:00,
2013-01-07 23:37:00,44.8,42.8,30.09,SSE,152,0.0,0.0,93,0.00,,,0.00,meteohub,2013-01-08 07:37:00,
2013-01-07 23:42:00,44.4,42.4,30.09,SSE,152,0.0,0.0,93,0.00,,,0.00,meteohub,2013-01-08 07:42:00,
2013-01-07 23:47:00,44.4,42.3,30.09,SSE,152,0.0,0.0,92,0.00,,,0.00,meteohub,2013-01-08 07:47:00,
2013-01-07 23:52:00,44.2,42.3,30.09,SSE,152,0.0,0.0,93,0.00,,,0.00,meteohub,2013-01-08 07:52:00,
2013-01-07 23:57:00,44.1,42.1,30.09,SSE,152,0.0,0.0,93,0.00,,,0.00,meteohub,2013-01-08 07:57:00,